Satellite: OKEAN-0
Catalog number: 25860
Epoch time:      05222.70415193
Element set:    0509
Inclination:      097.7543 deg
RA of node:       246.1957 deg
Eccentricity:    0.0001940
Arg of perigee:   072.1560 deg
Mean anomaly:     287.9857 deg
Mean motion:   14.73277240 rev/day
Decay rate:       1.47e-06 rev/day^2
Epoch rev:           32603
Checksum:              299

Satellite: NOAA-16
Catalog number: 26536
Epoch time:      05223.26766343
Element set:     466
Inclination:      099.0163 deg
RA of node:       182.0427 deg
Eccentricity:    0.0009725
Arg of perigee:   274.2212 deg
Mean anomaly:     085.7848 deg
Mean motion:   14.12262444 rev/day
Decay rate:       -4.6e-07 rev/day^2
Epoch rev:           25183
Checksum:              300

Satellite: NOAA-17
Catalog number: 27453
Epoch time:      05223.38851450
Element set:     486
Inclination:      098.6575 deg
RA of node:       296.0604 deg
Eccentricity:    0.0010984
Arg of perigee:   252.9848 deg
Mean anomaly:     107.0171 deg
Mean motion:   14.23691498 rev/day
Decay rate:       1.76e-06 rev/day^2
Epoch rev:           16269
Checksum:              332

Satellite: NOAA-18
Catalog number: 28654
Epoch time:      05223.44918888
Element set:      98
Inclination:      098.7468 deg
RA of node:       169.0108 deg
Eccentricity:    0.0014931
Arg of perigee:   022.2218 deg
Mean anomaly:     337.9605 deg
Mean motion:   14.10870250 rev/day
Decay rate:       -4.1e-07 rev/day^2
Epoch rev:            1170
Checksum:              302

/EX
SB KEPS @ AMSAT  $ORB05223.M
Orbital Elements  05223.MISC

HR AMSAT ORBITAL ELEMENTS FOR MANNED AND MISCELLANEOUS SATELLITES
FROM WA5QGD FORT WORTH,TX August 11, 2005
Send SUBSCRIBE KEPS/UNSUBSCRIBE KEPS to majordomo@amsat.org only
BID: ORB05223.M
TO ALL RADIO AMATEURS BT

Satellite: HUBBLE
Catalog number: 20580
Epoch time:      05222.55938115
Element set:     401
Inclination:      028.4687 deg
RA of node:       274.4903 deg
Eccentricity:    0.0003905
Arg of perigee:   131.3999 deg
Mean anomaly:     228.6927 deg
Mean motion:   14.99798386 rev/day
Decay rate:       7.01e-06 rev/day^2
Epoch rev:           63841
Checksum:              323

Satellite: UARS
Catalog number: 21701
Epoch time:      05222.63771483
Element set:    0505
Inclination:      056.9819 deg
RA of node:       329.3207 deg
Eccentricity:    0.0006843
Arg of perigee:   090.0712 deg
Mean anomaly:     270.1094 deg
Mean motion:   15.03871484 rev/day
Decay rate:      -4.77e-06 rev/day^2
Epoch rev:           76168
Checksum:              295

Satellite: PO-34
Catalog number: 25520
Epoch time:      05222.60766523
Element set:    0266
Inclination:      028.4594 deg
RA of node:       308.4444 deg
Eccentricity:    0.0006347
Arg of perigee:   097.0709 deg
Mean anomaly:     263.0607 deg
Mean motion:   15.16380295 rev/day
Decay rate:       7.90e-06 rev/day^2
Epoch rev:           37485
Checksum:              309

Satellite: ISS
Catalog number: 25544
Epoch time:      05223.81154382
Element set:     124
Inclination:      051.6462 deg
RA of node:       336.1134 deg
Eccentricity:    0.0001141
Arg of perigee:   229.7797 deg
Mean anomaly:     272.0471 deg
Mean motion:   15.71630808 rev/day
Decay rate:     1.3345e-04 rev/day^2
Epoch rev:           38443
Checksum:              273

Satellite: OO-38
Catalog number: 26063
Epoch time:      05223.66919251
Element set:     412
Inclination:      100.2069 deg
RA of node:       093.8442 deg
Eccentricity:    0.0036547
Arg of perigee:   258.9892 deg
Mean anomaly:     100.7183 deg
Mean motion:   14.35729203 rev/day
Decay rate:        2.9e-07 rev/day^2
Epoch rev:           29025
Checksum:              298

Satellite: NO-45
Catalog number: 26932
Epoch time:      05223.70067287
Element set:      97
Inclination:      067.0572 deg
RA of node:       084.4810 deg
Eccentricity:    0.0004967
Arg of perigee:   245.7530 deg
Mean anomaly:     114.3037 deg
Mean motion:   14.29494760 rev/day
Decay rate:        1.8e-07 rev/day^2
Epoch rev:           20173
Checksum:              298

/EX




----
Via the keps mailing list at AMSAT.ORG courtesy of AMSAT-NA.
To unsubscribe, send "unsubscribe keps" to Majordomo@amsat.org

--- ViaMAIL!/WC v1.60d
 * Origin: Chowdanet (401-331-0615) telnet://chowdanet.com  (1:323/120)